| time (UTC) | temp F | wind direction | speed MPH | gust MPH | rain 1hr in | rain 24hr in | rain mn in | humidity % | barometer mb |
| 20260505173029 | 79 | 234 | 6.0 | 18.0 | 0.00 | 0.00 | 0.00 | 73 | 1006.6 |
| 20260505172509 | 78 | 207 | 10.0 | 18.0 | 0.00 | 0.00 | 0.00 | 74 | 1006.7 |
| 20260505172012 | 78 | 237 | 12.0 | 19.0 | 0.00 | 0.00 | 0.00 | 74 | 1006.8 |
| 20260505171528 | 78 | 194 | 9.0 | 19.0 | 0.00 | 0.00 | 0.00 | 74 | 1006.8 |
| 20260505171004 | 77 | 223 | 12.0 | 19.0 | 0.00 | 0.00 | 0.00 | 75 | 1006.8 |
| 20260505170503 | 77 | 209 | 9.0 | 19.0 | 0.00 | 0.00 | 0.00 | 74 | 1006.8 |
| 20260505170021 | 78 | 221 | 11.0 | 19.0 | 0.00 | 0.00 | 0.00 | 74 | 1006.6 |
| 20260505165506 | 78 | 188 | 12.0 | 18.0 | 0.00 | 0.00 | 0.00 | 73 | 1006.6 |
| 20260505165008 | 78 | 204 | 11.0 | 18.0 | 0.00 | 0.00 | 0.00 | 75 | 1006.5 |
| 20260505164524 | 77 | 201 | 11.0 | 18.0 | 0.00 | 0.00 | 0.00 | 74 | 1006.2 |
| 20260505164008 | 77 | 223 | 12.0 | 20.0 | 0.00 | 0.00 | 0.00 | 74 | 1006.2 |
| 20260505163510 | 77 | 196 | 10.0 | 20.0 | 0.00 | 0.00 | 0.00 | 76 | 1006.4 |
| 20260505163033 | 77 | 242 | 10.0 | 18.0 | 0.00 | 0.00 | 0.00 | 76 | 1006.4 |
| 20260505162506 | 76 | 212 | 11.0 | 19.0 | 0.00 | 0.00 | 0.00 | 76 | 1006.3 |
| 20260505162014 | 76 | 218 | 10.0 | 19.0 | 0.00 | 0.00 | 0.00 | 77 | 1006.2 |
| 20260505161530 | 76 | 242 | 9.0 | 21.0 | 0.00 | 0.00 | 0.00 | 78 | 1006.3 |
| 20260505161005 | 75 | 246 | 9.0 | 21.0 | 0.00 | 0.00 | 0.00 | 78 | 1006.4 |
| 20260505160504 | 75 | 207 | 8.0 | 18.0 | 0.00 | 0.00 | 0.00 | 78 | 1006.4 |
| 20260505153028 | 74 | 234 | 10.0 | 20.0 | 0.00 | 0.00 | 0.00 | 79 | 1006.5 |
| 20260505152504 | 74 | 207 | 10.0 | 20.0 | 0.00 | 0.00 | 0.00 | 80 | 1006.4 |
| 20260505152005 | 74 | 236 | 10.0 | 17.0 | 0.00 | 0.00 | 0.00 | 80 | 1006.5 |
| 20260505151517 | 74 | 207 | 10.0 | 16.0 | 0.00 | 0.00 | 0.00 | 80 | 1006.4 |
| 20260505151003 | 74 | 213 | 10.0 | 17.0 | 0.00 | 0.00 | 0.00 | 80 | 1006.3 |
| 20260505150509 | 74 | 180 | 11.0 | 17.0 | 0.00 | 0.00 | 0.00 | 80 | 1006.2 |
| 20260505140505 | 71 | 198 | 8.0 | 16.0 | 0.00 | 0.00 | 0.00 | 84 | 1006.4 |
| 20260505125008 | 70 | 200 | 6.0 | 18.0 | 0.00 | 0.00 | 0.00 | 85 | 1006.1 |
| 20260505124517 | 70 | 198 | 7.0 | 18.0 | 0.00 | 0.00 | 0.00 | 85 | 1006.0 |
| 20260505124008 | 70 | 209 | 7.0 | 13.0 | 0.00 | 0.00 | 0.00 | 85 | 1006.1 |
| 20260505123507 | 70 | 210 | 8.0 | 11.0 | 0.00 | 0.00 | 0.00 | 85 | 1006.0 |
| 20260505123030 | 70 | 232 | 7.0 | 13.0 | 0.00 | 0.00 | 0.00 | 86 | 1005.9 |
| 20260505122510 | 70 | 234 | 9.0 | 15.0 | 0.00 | 0.00 | 0.00 | 86 | 1005.7 |
| 20260505122007 | 70 | 211 | 9.0 | 15.0 | 0.00 | 0.00 | 0.00 | 86 | 1005.6 |
| 20260505121527 | 70 | 205 | 6.0 | 11.0 | 0.00 | 0.00 | 0.00 | 86 | 1005.7 |
| 20260505121009 | 69 | 241 | 6.0 | 16.0 | 0.00 | 0.00 | 0.00 | 86 | 1005.6 |
| 20260505120512 | 69 | 224 | 8.0 | 16.0 | 0.00 | 0.00 | 0.00 | 85 | 1005.5 |
| 20260505120028 | 69 | 198 | 8.0 | 15.0 | 0.00 | 0.00 | 0.00 | 85 | 1005.4 |
| 20260505115503 | 69 | 221 | 8.0 | 15.0 | 0.00 | 0.00 | 0.00 | 85 | 1005.4 |
| 20260505115009 | 69 | 206 | 8.0 | 14.0 | 0.00 | 0.00 | 0.00 | 85 | 1005.3 |
| 20260505114519 | 69 | 206 | 7.0 | 16.0 | 0.00 | 0.00 | 0.00 | 85 | 1005.3 |
| 20260505114007 | 69 | 224 | 8.0 | 16.0 | 0.00 | 0.00 | 0.00 | 85 | 1005.3 |
| 20260505113502 | 69 | 233 | 6.0 | 13.0 | 0.00 | 0.00 | 0.00 | 85 | 1005.2 |
| 20260505113023 | 69 | 206 | 9.0 | 13.0 | 0.00 | 0.00 | 0.00 | 85 | 1005.2 |
| 20260505112505 | 69 | 210 | 7.0 | 14.0 | 0.00 | 0.00 | 0.00 | 85 | 1005.3 |
| 20260505112007 | 69 | 225 | 9.0 | 14.0 | 0.00 | 0.00 | 0.00 | 85 | 1005.3 |
| 20260505111524 | 69 | 211 | 9.0 | 14.0 | 0.00 | 0.00 | 0.00 | 84 | 1005.3 |
| 20260505111006 | 70 | 209 | 8.0 | 15.0 | 0.00 | 0.00 | 0.00 | 84 | 1005.3 |
| 20260505110509 | 69 | 202 | 8.0 | 15.0 | 0.00 | 0.00 | 0.00 | 84 | 1005.2 |
| 20260505102006 | 70 | 205 | 10.0 | 20.0 | 0.00 | 0.00 | 0.00 | 83 | 1005.5 |
| 20260505101522 | 70 | 222 | 10.0 | 20.0 | 0.00 | 0.00 | 0.00 | 83 | 1005.6 |
| 20260505101006 | 70 | 227 | 8.0 | 14.0 | 0.00 | 0.00 | 0.00 | 83 | 1005.6 |
| 20260505100506 | 70 | 201 | 10.0 | 14.0 | 0.00 | 0.00 | 0.00 | 83 | 1005.6 |
| 20260505100028 | 70 | 211 | 7.0 | 16.0 | 0.00 | 0.00 | 0.00 | 83 | 1005.8 |
| 20260505095507 | 70 | 187 | 8.0 | 16.0 | 0.00 | 0.00 | 0.00 | 83 | 1005.6 |
| 20260505095012 | 70 | 211 | 7.0 | 16.0 | 0.00 | 0.00 | 0.00 | 83 | 1005.8 |
| 20260505094530 | 70 | 220 | 10.0 | 17.0 | 0.00 | 0.00 | 0.00 | 83 | 1005.7 |
| 20260505094010 | 70 | 204 | 10.0 | 16.0 | 0.00 | 0.00 | 0.00 | 83 | 1005.7 |
| 20260505093510 | 70 | 204 | 10.0 | 16.0 | 0.00 | 0.00 | 0.00 | 83 | 1005.7 |
| 20260505093037 | 70 | 229 | 7.0 | 15.0 | 0.00 | 0.00 | 0.00 | 83 | 1005.7 |
| 20260505092504 | 70 | 201 | 8.0 | 15.0 | 0.00 | 0.00 | 0.00 | 83 | 1005.6 |
| 20260505092008 | 70 | 246 | 9.0 | 16.0 | 0.00 | 0.00 | 0.00 | 83 | 1005.6 |
| 20260505091524 | 70 | 218 | 10.0 | 16.0 | 0.00 | 0.00 | 0.00 | 84 | 1005.5 |
| 20260505091008 | 70 | 217 | 7.0 | 14.0 | 0.00 | 0.00 | 0.00 | 84 | 1005.6 |
| 20260505090507 | 70 | 211 | 6.0 | 13.0 | 0.00 | 0.00 | 0.00 | 84 | 1005.7 |
| 20260505090024 | 70 | 237 | 8.0 | 16.0 | 0.00 | 0.00 | 0.00 | 83 | 1005.7 |
| 20260505085507 | 70 | 238 | 10.0 | 16.0 | 0.00 | 0.00 | 0.00 | 83 | 1005.6 |
| 20260505085011 | 70 | 191 | 8.0 | 19.0 | 0.00 | 0.00 | 0.00 | 83 | 1005.5 |
| 20260505084528 | 70 | 237 | 11.0 | 19.0 | 0.00 | 0.00 | 0.00 | 83 | 1005.4 |
| 20260505084009 | 70 | 229 | 9.0 | 16.0 | 0.00 | 0.00 | 0.00 | 83 | 1005.5 |
| 20260505083508 | 69 | 207 | 9.0 | 16.0 | 0.00 | 0.00 | 0.00 | 83 | 1005.6 |
| 20260505083033 | 69 | 227 | 10.0 | 16.0 | 0.00 | 0.00 | 0.00 | 83 | 1005.5 |
| 20260505082508 | 69 | 210 | 9.0 | 17.0 | 0.00 | 0.00 | 0.00 | 83 | 1005.5 |
| 20260505082007 | 69 | 225 | 9.0 | 18.0 | 0.00 | 0.00 | 0.00 | 83 | 1005.7 |
| 20260505081532 | 69 | 229 | 10.0 | 18.0 | 0.00 | 0.00 | 0.00 | 83 | 1005.8 |
| 20260505081007 | 69 | 198 | 9.0 | 16.0 | 0.00 | 0.00 | 0.00 | 83 | 1005.9 |
| 20260505080507 | 69 | 216 | 7.0 | 18.0 | 0.00 | 0.00 | 0.00 | 83 | 1005.9 |
| 20260505080026 | 69 | 223 | 10.0 | 18.0 | 0.00 | 0.00 | 0.00 | 83 | 1006.1 |
| 20260505075508 | 69 | 180 | 10.0 | 17.0 | 0.00 | 0.00 | 0.00 | 83 | 1006.1 |
| 20260505075008 | 70 | 238 | 10.0 | 20.0 | 0.00 | 0.00 | 0.00 | 82 | 1006.1 |
| 20260505074528 | 70 | 200 | 9.0 | 20.0 | 0.00 | 0.00 | 0.00 | 82 | 1006.1 |
| 20260505074008 | 70 | 182 | 12.0 | 19.0 | 0.00 | 0.00 | 0.00 | 82 | 1006.1 |
| 20260505073511 | 70 | 200 | 10.0 | 15.0 | 0.00 | 0.00 | 0.00 | 82 | 1006.1 |
| 20260505073037 | 70 | 211 | 8.0 | 18.0 | 0.00 | 0.00 | 0.00 | 81 | 1006.2 |
| 20260505072511 | 70 | 174 | 8.0 | 18.0 | 0.00 | 0.00 | 0.00 | 81 | 1006.1 |
| 20260505072010 | 70 | 204 | 11.0 | 15.0 | 0.00 | 0.00 | 0.00 | 81 | 1006.1 |
| 20260505071529 | 70 | 221 | 11.0 | 17.0 | 0.00 | 0.00 | 0.00 | 81 | 1006.2 |
| 20260505071004 | 70 | 221 | 10.0 | 17.0 | 0.00 | 0.00 | 0.00 | 81 | 1006.2 |
| 20260505070509 | 70 | 211 | 9.0 | 15.0 | 0.00 | 0.00 | 0.00 | 80 | 1006.3 |
| 20260505070024 | 70 | 186 | 9.0 | 17.0 | 0.00 | 0.00 | 0.00 | 80 | 1006.4 |
| 20260505065510 | 70 | 210 | 10.0 | 17.0 | 0.00 | 0.00 | 0.00 | 80 | 1006.5 |
| 20260505065009 | 70 | 240 | 9.0 | 18.0 | 0.00 | 0.00 | 0.00 | 80 | 1006.5 |
| 20260505064527 | 70 | 245 | 11.0 | 18.0 | 0.00 | 0.00 | 0.00 | 79 | 1006.6 |
| 20260505064005 | 71 | 213 | 9.0 | 18.0 | 0.00 | 0.00 | 0.00 | 79 | 1006.6 |
| 20260505063504 | 71 | 194 | 13.0 | 18.0 | 0.00 | 0.00 | 0.00 | 79 | 1006.7 |
| 20260505063012 | 71 | 242 | 9.0 | 21.0 | 0.00 | 0.00 | 0.00 | 79 | 1006.8 |
| 20260505062505 | 71 | 234 | 11.0 | 21.0 | 0.00 | 0.00 | 0.00 | 78 | 1006.8 |
| 20260505062003 | 71 | 203 | 11.0 | 18.0 | 0.00 | 0.00 | 0.00 | 78 | 1006.7 |
| 20260505061515 | 71 | 215 | 9.0 | 18.0 | 0.00 | 0.00 | 0.00 | 78 | 1006.7 |
| 20260505061005 | 71 | 202 | 9.0 | 15.0 | 0.00 | 0.00 | 0.00 | 77 | 1006.8 |
| 20260505060507 | 71 | 193 | 8.0 | 17.0 | 0.00 | 0.00 | 0.00 | 77 | 1006.8 |
| 20260505060027 | 71 | 221 | 11.0 | 18.0 | 0.00 | 0.00 | 0.00 | 77 | 1006.8 |
| 20260505055507 | 71 | 234 | 8.0 | 18.0 | 0.00 | 0.00 | 0.00 | 77 | 1006.9 |
| 20260505055007 | 71 | 212 | 11.0 | 18.0 | 0.00 | 0.00 | 0.00 | 77 | 1006.9 |
| 20260505054534 | 71 | 209 | 10.0 | 18.0 | 0.00 | 0.00 | 0.00 | 76 | 1006.9 |
| 20260505054014 | 71 | 203 | 8.0 | 15.0 | 0.00 | 0.00 | 0.00 | 76 | 1007.0 |
| 20260505053511 | 72 | 220 | 8.0 | 15.0 | 0.00 | 0.00 | 0.00 | 76 | 1007.0 |
| 20260505053038 | 72 | 173 | 9.0 | 15.0 | 0.00 | 0.00 | 0.00 | 76 | 1007.1 |
| 20260505052502 | 72 | 225 | 9.0 | 16.0 | 0.00 | 0.00 | 0.00 | 76 | 1007.2 |
| 20260505052001 | 72 | 207 | 11.0 | 16.0 | 0.00 | 0.00 | 0.00 | 76 | 1007.2 |
| 20260505051514 | 72 | 219 | 7.0 | 15.0 | 0.00 | 0.00 | 0.00 | 75 | 1007.2 |
| 20260505051003 | 72 | 206 | 7.0 | 18.0 | 0.00 | 0.00 | 0.00 | 75 | 1007.2 |
| 20260505050508 | 72 | 214 | 9.0 | 18.0 | 0.00 | 0.00 | 0.00 | 75 | 1007.2 |
| 20260505041528 | 72 | 234 | 7.0 | 13.0 | 0.00 | 0.00 | 0.00 | 73 | 1007.4 |
| 20260505041004 | 72 | 167 | 7.0 | 13.0 | 0.00 | 0.00 | 0.00 | 73 | 1007.5 |
| 20260505040503 | 72 | 189 | 5.0 | 13.0 | 0.00 | 0.00 | 0.00 | 73 | 1007.5 |
| 20260505040013 | 72 | 228 | 5.0 | 12.0 | 0.00 | 0.00 | 0.00 | 73 | 1007.6 |
| 20260505035508 | 72 | 201 | 8.0 | 12.0 | 0.00 | 0.00 | 0.00 | 73 | 1007.5 |
| 20260505035005 | 72 | 234 | 5.0 | 11.0 | 0.00 | 0.00 | 0.00 | 73 | 1007.6 |
| 20260505034523 | 72 | 175 | 5.0 | 11.0 | 0.00 | 0.00 | 0.00 | 73 | 1007.7 |
| 20260505034008 | 72 | 176 | 5.0 | 8.0 | 0.00 | 0.00 | 0.00 | 73 | 1007.7 |
| 20260505033506 | 72 | 211 | 6.0 | 9.0 | 0.00 | 0.00 | 0.00 | 72 | 1007.6 |
| 20260505033022 | 72 | 208 | 6.0 | 14.0 | 0.00 | 0.00 | 0.00 | 72 | 1007.6 |
| 20260505032508 | 72 | 209 | 5.0 | 14.0 | 0.00 | 0.00 | 0.00 | 72 | 1007.6 |
| 20260505032011 | 72 | 230 | 7.0 | 14.0 | 0.00 | 0.00 | 0.00 | 72 | 1007.8 |
| 20260505031526 | 72 | 213 | 5.0 | 9.0 | 0.00 | 0.00 | 0.00 | 72 | 1007.8 |
| 20260505031010 | 72 | 211 | 5.0 | 8.0 | 0.00 | 0.00 | 0.00 | 71 | 1007.7 |
| 20260505030510 | 72 | 184 | 4.0 | 10.0 | 0.00 | 0.00 | 0.00 | 71 | 1007.8 |
| 20260505030030 | 72 | 231 | 6.0 | 10.0 | 0.00 | 0.00 | 0.00 | 71 | 1007.8 |
| 20260505025509 | 72 | 213 | 5.0 | 8.0 | 0.00 | 0.00 | 0.00 | 71 | 1007.8 |
| 20260505025010 | 72 | 196 | 4.0 | 9.0 | 0.00 | 0.00 | 0.00 | 71 | 1007.7 |
| 20260505024517 | 72 | 218 | 4.0 | 9.0 | 0.00 | 0.00 | 0.00 | 71 | 1007.8 |
| 20260505024008 | 72 | 179 | 4.0 | 9.0 | 0.00 | 0.00 | 0.00 | 70 | 1007.7 |
| 20260505023506 | 72 | 227 | 4.0 | 9.0 | 0.00 | 0.00 | 0.00 | 70 | 1007.6 |
| 20260505023021 | 72 | 212 | 4.0 | 6.0 | 0.00 | 0.00 | 0.00 | 70 | 1007.6 |
| 20260505022505 | 72 | 218 | 3.0 | 9.0 | 0.00 | 0.00 | 0.00 | 70 | 1007.6 |
| 20260505022008 | 72 | 205 | 4.0 | 9.0 | 0.00 | 0.00 | 0.00 | 70 | 1007.6 |
| 20260505021525 | 72 | 178 | 3.0 | 9.0 | 0.00 | 0.00 | 0.00 | 69 | 1007.6 |
| 20260505021007 | 72 | 222 | 4.0 | 7.0 | 0.00 | 0.00 | 0.00 | 69 | 1007.6 |
| 20260505020512 | 72 | 224 | 4.0 | 7.0 | 0.00 | 0.00 | 0.00 | 69 | 1007.6 |
| 20260505020030 | 73 | 200 | 3.0 | 7.0 | 0.00 | 0.00 | 0.00 | 69 | 1007.6 |
| 20260505015510 | 73 | 208 | 3.0 | 8.0 | 0.00 | 0.00 | 0.00 | 69 | 1007.6 |
| 20260505015014 | 73 | 178 | 4.0 | 8.0 | 0.00 | 0.00 | 0.00 | 69 | 1007.6 |
| 20260505014533 | 73 | 194 | 3.0 | 6.0 | 0.00 | 0.00 | 0.00 | 68 | 1007.7 |
| 20260505014003 | 73 | 204 | 3.0 | 9.0 | 0.00 | 0.00 | 0.00 | 68 | 1007.7 |
| 20260505013503 | 73 | 196 | 3.0 | 9.0 | 0.00 | 0.00 | 0.00 | 68 | 1007.5 |
| 20260505013019 | 73 | 142 | 3.0 | 7.0 | 0.00 | 0.00 | 0.00 | 67 | 1007.7 |
| 20260505012507 | 73 | 180 | 2.0 | 5.0 | 0.00 | 0.00 | 0.00 | 67 | 1007.7 |
| 20260505012008 | 74 | 188 | 2.0 | 6.0 | 0.00 | 0.00 | 0.00 | 67 | 1007.8 |
| 20260505011523 | 74 | 226 | 3.0 | 6.0 | 0.00 | 0.00 | 0.00 | 66 | 1007.6 |
| 20260505011010 | 74 | 195 | 3.0 | 7.0 | 0.00 | 0.00 | 0.00 | 66 | 1007.5 |
| 20260505010510 | 74 | 214 | 2.0 | 8.0 | 0.00 | 0.00 | 0.00 | 66 | 1007.5 |
| 20260505010032 | 74 | 209 | 3.0 | 8.0 | 0.00 | 0.00 | 0.00 | 65 | 1007.5 |
| 20260505005507 | 75 | 234 | 4.0 | 9.0 | 0.00 | 0.00 | 0.00 | 65 | 1007.6 |
| 20260505005010 | 75 | 184 | 4.0 | 9.0 | 0.00 | 0.00 | 0.00 | 64 | 1007.6 |
| 20260505004539 | 75 | 246 | 3.0 | 7.0 | 0.00 | 0.00 | 0.00 | 64 | 1007.5 |
| 20260505004010 | 75 | 215 | 4.0 | 9.0 | 0.00 | 0.00 | 0.00 | 63 | 1007.6 |
| 20260505003515 | 76 | 209 | 5.0 | 10.0 | 0.00 | 0.00 | 0.00 | 63 | 1007.6 |
| 20260505003017 | 76 | 182 | 4.0 | 10.0 | 0.00 | 0.00 | 0.00 | 63 | 1007.5 |
| 20260505002507 | 76 | 216 | 4.0 | 9.0 | 0.00 | 0.00 | 0.00 | 63 | 1007.5 |
| 20260505002007 | 76 | 209 | 4.0 | 12.0 | 0.00 | 0.00 | 0.00 | 62 | 1007.6 |
| 20260505001522 | 76 | 186 | 5.0 | 12.0 | 0.00 | 0.00 | 0.00 | 62 | 1007.7 |
| 20260505001006 | 76 | 205 | 4.0 | 9.0 | 0.00 | 0.00 | 0.00 | 61 | 1007.7 |
| 20260505000507 | 76 | 189 | 5.0 | 10.0 | 0.00 | 0.00 | 0.00 | 60 | 1007.7 |
| 20260505000027 | 76 | 218 | 5.0 | 12.0 | 0.00 | 0.00 | 0.00 | 60 | 1007.5 |
| 20260504235507 | 77 | 232 | 6.0 | 12.0 | 0.00 | 0.00 | 0.00 | 59 | 1007.6 |
| 20260504235009 | 77 | 234 | 4.0 | 10.0 | 0.00 | 0.00 | 0.00 | 59 | 1007.7 |
| 20260504234535 | 77 | 184 | 6.0 | 10.0 | 0.00 | 0.00 | 0.00 | 58 | 1007.8 |
| 20260504234008 | 77 | 229 | 7.0 | 12.0 | 0.00 | 0.00 | 0.00 | 57 | 1007.8 |
| 20260504233508 | 77 | 218 | 5.0 | 12.0 | 0.00 | 0.00 | 0.00 | 56 | 1007.9 |
| 20260504233031 | 78 | 213 | 4.0 | 13.0 | 0.00 | 0.00 | 0.00 | 56 | 1008.1 |
| 20260504232510 | 78 | 236 | 8.0 | 14.0 | 0.00 | 0.00 | 0.00 | 56 | 1008.0 |
| 20260504232013 | 78 | 222 | 7.0 | 14.0 | 0.00 | 0.00 | 0.00 | 56 | 1007.9 |
| 20260504231542 | 79 | 200 | 7.0 | 12.0 | 0.00 | 0.00 | 0.00 | 55 | 1008.1 |
| 20260504231008 | 79 | 214 | 5.0 | 15.0 | 0.00 | 0.00 | 0.00 | 54 | 1008.2 |
| 20260504230507 | 79 | 212 | 7.0 | 15.0 | 0.00 | 0.00 | 0.00 | 54 | 1008.2 |
| 20260504230024 | 79 | 214 | 8.0 | 15.0 | 0.00 | 0.00 | 0.00 | 52 | 1008.3 |
| 20260504225513 | 79 | 218 | 5.0 | 11.0 | 0.00 | 0.00 | 0.00 | 53 | 1008.4 |
| 20260504225010 | 79 | 221 | 5.0 | 13.0 | 0.00 | 0.00 | 0.00 | 53 | 1008.3 |
| 20260504224529 | 79 | 196 | 7.0 | 13.0 | 0.00 | 0.00 | 0.00 | 52 | 1008.2 |
| 20260504224006 | 79 | 201 | 6.0 | 17.0 | 0.00 | 0.00 | 0.00 | 51 | 1008.3 |
| 20260504223511 | 80 | 226 | 6.0 | 17.0 | 0.00 | 0.00 | 0.00 | 52 | 1008.4 |
| 20260504223027 | 79 | 196 | 7.0 | 12.0 | 0.00 | 0.00 | 0.00 | 53 | 1008.5 |
| 20260504222508 | 79 | 217 | 6.0 | 12.0 | 0.00 | 0.00 | 0.00 | 52 | 1008.5 |
| 20260504222014 | 80 | 221 | 7.0 | 16.0 | 0.00 | 0.00 | 0.00 | 52 | 1008.5 |
| 20260504221530 | 80 | 220 | 8.0 | 14.0 | 0.00 | 0.00 | 0.00 | 51 | 1008.6 |
| 20260504221009 | 79 | 243 | 8.0 | 14.0 | 0.00 | 0.00 | 0.00 | 52 | 1008.6 |
| 20260504220509 | 79 | 227 | 8.0 | 15.0 | 0.00 | 0.00 | 0.00 | 53 | 1008.6 |
| 20260504220022 | 79 | 233 | 9.0 | 15.0 | 0.00 | 0.00 | 0.00 | 51 | 1008.8 |
| 20260504215507 | 80 | 205 | 9.0 | 15.0 | 0.00 | 0.00 | 0.00 | 50 | 1008.9 |
| 20260504215015 | 80 | 229 | 9.0 | 20.0 | 0.00 | 0.00 | 0.00 | 51 | 1009.0 |
| 20260504214504 | 79 | 238 | 8.0 | 20.0 | 0.00 | 0.00 | 0.00 | 50 | 1008.9 |
| 20260504214004 | 79 | 200 | 10.0 | 16.0 | 0.00 | 0.00 | 0.00 | 51 | 1009.0 |
| 20260504213503 | 79 | 219 | 9.0 | 13.0 | 0.00 | 0.00 | 0.00 | 50 | 1009.0 |
| 20260504213009 | 79 | 220 | 7.0 | 18.0 | 0.00 | 0.00 | 0.00 | 50 | 1009.1 |
| 20260504212504 | 79 | 172 | 10.0 | 18.0 | 0.00 | 0.00 | 0.00 | 51 | 1009.1 |
| 20260504212007 | 79 | 215 | 10.0 | 16.0 | 0.00 | 0.00 | 0.00 | 49 | 1009.2 |
| 20260504211513 | 79 | 204 | 10.0 | 15.0 | 0.00 | 0.00 | 0.00 | 49 | 1009.2 |
| 20260504211006 | 79 | 223 | 10.0 | 17.0 | 0.00 | 0.00 | 0.00 | 49 | 1009.3 |
| 20260504210507 | 79 | 240 | 10.0 | 19.0 | 0.00 | 0.00 | 0.00 | 49 | 1009.4 |
| 20260504210019 | 79 | 208 | 9.0 | 17.0 | 0.00 | 0.00 | 0.00 | 50 | 1009.5 |
| 20260504205507 | 80 | 169 | 9.0 | 15.0 | 0.00 | 0.00 | 0.00 | 49 | 1009.7 |
| 20260504205008 | 80 | 194 | 7.0 | 15.0 | 0.00 | 0.00 | 0.00 | 49 | 1009.9 |
| 20260504204551 | 79 | 200 | 9.0 | 15.0 | 0.00 | 0.00 | 0.00 | 49 | 1009.9 |
| 20260504204010 | 79 | 191 | 8.0 | 15.0 | 0.00 | 0.00 | 0.00 | 47 | 1010.0 |
| 20260504203509 | 79 | 188 | 9.0 | 15.0 | 0.00 | 0.00 | 0.00 | 49 | 1010.2 |
| 20260504203009 | 79 | 199 | 10.0 | 16.0 | 0.00 | 0.00 | 0.00 | 47 | 1010.5 |
| 20260504202503 | 79 | 232 | 12.0 | 17.0 | 0.00 | 0.00 | 0.00 | 47 | 1010.6 |
| 20260504202003 | 79 | 209 | 9.0 | 17.0 | 0.00 | 0.00 | 0.00 | 48 | 1010.6 |
| 20260504201527 | 79 | 215 | 9.0 | 16.0 | 0.00 | 0.00 | 0.00 | 47 | 1010.8 |
| 20260504201007 | 79 | 200 | 6.0 | 16.0 | 0.00 | 0.00 | 0.00 | 49 | 1010.8 |
| 20260504200507 | 78 | 232 | 8.0 | 17.0 | 0.00 | 0.00 | 0.00 | 48 | 1010.9 |
| 20260504200023 | 78 | 210 | 9.0 | 17.0 | 0.00 | 0.00 | 0.00 | 49 | 1011.0 |
| 20260504195509 | 78 | 215 | 10.0 | 17.0 | 0.00 | 0.00 | 0.00 | 48 | 1011.0 |
| 20260504195007 | 78 | 178 | 8.0 | 14.0 | 0.00 | 0.00 | 0.00 | 47 | 1011.2 |
| 20260504194522 | 79 | 218 | 9.0 | 14.0 | 0.00 | 0.00 | 0.00 | 47 | 1011.2 |
| 20260504194006 | 79 | 228 | 8.0 | 13.0 | 0.00 | 0.00 | 0.00 | 48 | 1011.4 |
| 20260504193506 | 78 | 227 | 6.0 | 13.0 | 0.00 | 0.00 | 0.00 | 47 | 1011.6 |
| 20260504193028 | 78 | 231 | 7.0 | 17.0 | 0.00 | 0.00 | 0.00 | 48 | 1011.5 |
| 20260504192511 | 78 | 182 | 10.0 | 17.0 | 0.00 | 0.00 | 0.00 | 45 | 1011.7 |
| 20260504192014 | 78 | 221 | 9.0 | 16.0 | 0.00 | 0.00 | 0.00 | 47 | 1011.7 |
| 20260504191508 | 78 | 232 | 10.0 | 18.0 | 0.00 | 0.00 | 0.00 | 45 | 1011.8 |
| 20260504191002 | 78 | 222 | 10.0 | 18.0 | 0.00 | 0.00 | 0.00 | 45 | 1011.8 |
| 20260504190505 | 78 | 221 | 7.0 | 15.0 | 0.00 | 0.00 | 0.00 | 47 | 1011.8 |
| 20260504190035 | 77 | 215 | 8.0 | 19.0 | 0.00 | 0.00 | 0.00 | 48 | 1011.8 |
| 20260504185505 | 77 | 213 | 8.0 | 18.0 | 0.00 | 0.00 | 0.00 | 46 | 1012.0 |
| 20260504185005 | 76 | 204 | 9.0 | 17.0 | 0.00 | 0.00 | 0.00 | 46 | 1012.2 |
| 20260504184520 | 76 | 190 | 10.0 | 16.0 | 0.00 | 0.00 | 0.00 | 47 | 1012.2 |
| 20260504184012 | 76 | 224 | 7.0 | 13.0 | 0.00 | 0.00 | 0.00 | 48 | 1012.3 |
| 20260504183509 | 76 | 248 | 6.0 | 17.0 | 0.00 | 0.00 | 0.00 | 50 | 1012.4 |
| 20260504183030 | 76 | 175 | 9.0 | 17.0 | 0.00 | 0.00 | 0.00 | 47 | 1012.7 |
| 20260504182509 | 76 | 220 | 10.0 | 15.0 | 0.00 | 0.00 | 0.00 | 45 | 1012.7 |
| 20260504182013 | 76 | 241 | 9.0 | 17.0 | 0.00 | 0.00 | 0.00 | 47 | 1012.7 |
| 20260504181534 | 76 | 244 | 8.0 | 21.0 | 0.00 | 0.00 | 0.00 | 48 | 1012.6 |
| 20260504181009 | 76 | 227 | 11.0 | 21.0 | 0.00 | 0.00 | 0.00 | 47 | 1012.8 |
| 20260504180514 | 76 | 211 | 8.0 | 17.0 | 0.00 | 0.00 | 0.00 | 48 | 1013.0 |
| 20260504180013 | 76 | 221 | 7.0 | 17.0 | 0.00 | 0.00 | 0.00 | 50 | 1013.0 |
| 20260504175505 | 76 | 251 | 10.0 | 16.0 | 0.00 | 0.00 | 0.00 | 49 | 1013.1 |
| 20260504175003 | 75 | 207 | 9.0 | 16.0 | 0.00 | 0.00 | 0.00 | 47 | 1013.2 |
| 20260504174516 | 75 | 207 | 10.0 | 15.0 | 0.00 | 0.00 | 0.00 | 52 | 1013.3 |
| 20260504174008 | 75 | 220 | 8.0 | 14.0 | 0.00 | 0.00 | 0.00 | 51 | 1013.4 |
| 20260504173505 | 75 | 234 | 8.0 | 15.0 | 0.00 | 0.00 | 0.00 | 50 | 1013.4 |